2019-253T00:00:40.131,   1, 180,   1,    30,   4,          0,     46.128,  99216.844,    34.135,    -4.007,     0.291,   287.008, 2, 5.486E-04, -1.00,   2,  1.641E-02,  2.340E-04,  1.815E-12,  5.288E-14,  6.905E+02,  2.011E+01, 255
2019-253T00:01:10.132,   1, 180,   1,    30,   4,          0,     46.128,  99216.844,    34.132,    -4.006,     0.291,   286.706, 2, 5.486E-04, -1.00,   2,  1.885E-02,  2.445E-04,  2.003E-12,  5.342E-14,  6.633E+02,  1.769E+01, 255
2019-253T00:01:40.132,   1, 180,   1,    30,   4,          0,     46.128,  99216.844,    34.128,    -4.005,     0.291,   286.403, 2, 5.486E-04, -1.00,   2,  2.002E-02,  2.452E-04,  2.173E-12,  5.329E-14,  6.775E+02,  1.661E+01, 255
2019-253T00:02:10.133,   1, 180,   1,    30,   4,          0,     46.128,  99216.844,    34.125,    -4.003,     0.291,   286.101, 2, 5.486E-04, -1.00,   2,  1.842E-02,  2.470E-04,  1.786E-12,  5.380E-14,  6.051E+02,  1.823E+01, 255
2019-253T00:02:40.133,   1, 180,   1,    30,   4,          0,     46.128,  99216.844,    34.121,    -4.002,     0.291,   285.798, 2, 5.486E-04, -1.00,   2,  1.806E-02,  2.450E-04,  1.815E-12,  5.261E-14,  6.271E+02,  1.818E+01, 255
2019-253T00:03:10.133,   1, 180,   1,    30,   4,          0,     46.128,  99216.844,    34.118,    -4.001,     0.291,   285.496, 2, 5.486E-04, -1.00,   2,  1.863E-02,  2.445E-04,  1.813E-12,  5.406E-14,  6.076E+02,  1.811E+01, 255
2019-253T00:03:40.134,   1, 180,   1,    30,   4,          0,     46.128,  99216.844,    34.114,    -4.000,     0.291,   285.193, 2, 5.486E-04, -1.00,   2,  1.749E-02,  2.404E-04,  1.978E-12,  5.439E-14,  7.059E+02,  1.941E+01, 255
2019-253T00:04:10.134,   1, 180,   1,    30,   4,          0,     46.128,  99216.844,    34.111,    -3.998,     0.291,   284.891, 2, 5.486E-04, -1.00,   2,  1.750E-02,  2.396E-04,  2.184E-12,  5.546E-14,  7.788E+02,  1.978E+01, 255
2019-253T00:04:40.134,   1, 180,   1,    30,   4,          0,     46.128,  99216.844,    34.107,    -3.997,     0.290,   284.588, 2, 5.486E-04, -1.00,   2,  1.823E-02,  2.393E-04,  2.127E-12,  5.312E-14,  7.280E+02,  1.818E+01, 255
2019-253T00:05:10.135,   1, 180,   1,    30,   4,          0,     46.128,  99216.844,    34.104,    -3.996,     0.290,   284.286, 2, 5.486E-04, -1.00,   2,  1.792E-02,  2.390E-04,  2.025E-12,  5.286E-14,  7.050E+02,  1.841E+01, 255
2019-253T00:05:40.135,   1, 180,   1,    30,   4,          0,     46.128,  99216.844,    34.100,    -3.995,     0.290,   283.983, 2, 5.486E-04, -1.00,   2,  1.764E-02,  2.346E-04,  1.990E-12,  5.324E-14,  7.040E+02,  1.883E+01, 255
2019-253T00:06:10.135,   1, 180,   1,    30,   4,          0,     46.128,  99216.844,    34.097,    -3.993,     0.290,   283.681, 2, 5.486E-04, -1.00,   2,  1.478E-02,  2.306E-04,  1.681E-12,  5.448E-14,  7.098E+02,  2.300E+01, 255
2019-253T00:06:40.136,   1, 180,   1,    30,   4,          0,     46.128,  99216.844,    34.093,    -3.992,     0.290,   283.378, 2, 5.486E-04, -1.00,   2,  1.433E-02,  2.291E-04,  1.951E-12,  5.480E-14,  8.497E+02,  2.386E+01, 255
2019-253T00:07:10.136,   1, 180,   1,    30,   4,          0,     46.128,  99216.844,    34.090,    -3.991,     0.290,   283.076, 2, 5.486E-04, -1.00,   2,  1.292E-02,  2.254E-04,  1.156E-12,  5.193E-14,  5.584E+02,  2.508E+01, 255
2019-253T00:07:40.136,   1, 180,   1,    30,   4,          0,     46.128,  99216.844,    34.086,    -3.990,     0.290,   282.773, 2, 5.486E-04, -1.00,   2,  1.247E-02,  2.123E-04,  1.900E-12,  5.529E-14,  9.510E+02,  2.768E+01, 255
2019-253T00:08:10.137,   1, 180,   1,    30,   4,          0,     46.128,  99216.844,    34.083,    -3.988,     0.290,   282.471, 2, 5.486E-04, -1.00,   2,  1.186E-02,  2.183E-04,  1.902E-12,  5.741E-14,  1.001E+03,  3.022E+01, 255
2019-253T00:08:40.137,   1, 180,   1,    30,   4,          0,     46.128,  99216.844,    34.079,    -3.987,     0.290,   282.168, 2, 5.486E-04, -1.00,   2,  1.131E-02,  2.161E-04,  1.585E-12,  5.650E-14,  8.746E+02,  3.118E+01, 255
2019-253T00:09:10.137,   1, 180,   1,    30,   4,          0,     46.128,  99216.844,    34.076,    -3.986,     0.290,   281.866, 2, 5.486E-04, -1.00,   2,  9.793E-03,  2.123E-04,  1.433E-12,  5.573E-14,  9.134E+02,  3.552E+01, 255
2019-253T00:09:40.138,   1, 180,   1,    30,   4,          0,     46.128,  99216.844,    34.072,    -3.985,     0.290,   281.563, 2, 5.486E-04, -1.00,   2,  9.160E-03,  2.135E-04,  1.437E-12,  5.678E-14,  9.793E+02,  3.869E+01, 255
2019-253T00:10:10.138,   1, 180,   1,    30,   4,          0,     46.128,  99216.844,    34.069,    -3.983,     0.290,   281.261, 2, 5.486E-04, -1.00,   2,  9.471E-03,  2.154E-04,  1.694E-12,  5.690E-14,  1.116E+03,  3.750E+01, 255
2019-253T00:10:40.138,   1, 180,   1,    30,   4,          0,     46.128,  99216.844,    34.065,    -3.982,     0.290,   280.958, 2, 5.486E-04, -1.00,   2,  9.498E-03,  2.173E-04,  1.649E-12,  5.890E-14,  1.083E+03,  3.870E+01, 255
2019-253T00:11:10.139,   1, 180,   1,    30,   4,          0,     46.128,  99216.844,    34.062,    -3.981,     0.290,   280.656, 2, 5.486E-04, -1.00,   2,  8.370E-03,  2.080E-04,  1.400E-12,  5.712E-14,  1.044E+03,  4.259E+01, 255
2019-253T00:11:40.139,   1, 180,   1,    30,   4,          0,     46.128,  99216.844,    34.058,    -3.980,     0.290,   280.353, 2, 5.486E-04, -1.00,   2,  7.941E-03,  2.043E-04,  1.331E-12,  5.653E-14,  1.046E+03,  4.443E+01, 255
2019-253T00:12:10.139,   1, 180,   1,    30,   4,          0,     46.128,  99216.844,    34.055,    -3.978,     0.290,   280.050, 2, 5.486E-04, -1.00,   2,  8.700E-03,  2.021E-04,  1.791E-12,  5.757E-14,  1.284E+03,  4.130E+01, 255
2019-253T00:15:10.142,   1, 180,   1,    30,   4,          0,     46.128,  99216.844,    34.034,    -3.971,     0.290,   278.235, 2, 5.486E-04, -1.00,   2,  8.415E-03,  2.014E-04,  1.368E-12,  5.437E-14,  1.015E+03,  4.033E+01, 255
2019-253T00:15:40.142,   1, 180,   1,    30,   4,          0,     46.128,  99216.844,    34.030,    -3.969,     0.290,   277.933, 2, 5.486E-04, -1.00,   2,  9.110E-03,  2.058E-04,  1.501E-12,  5.744E-14,  1.028E+03,  3.935E+01, 255
2019-253T00:16:10.142,   1, 180,   1,    30,   4,          0,     46.128,  99216.844,    34.027,    -3.968,     0.290,   277.630, 2, 5.486E-04, -1.00,   2,  9.343E-03,  2.079E-04,  1.432E-12,  5.595E-14,  9.565E+02,  3.738E+01, 255
2019-253T00:17:10.143,   1, 180,   1,    30,   4,          0,     46.128,  99216.844,    34.020,    -3.966,     0.290,   277.025, 2, 5.486E-04, -1.00,   2,  7.339E-03,  1.988E-04,  1.070E-12,  5.464E-14,  9.098E+02,  4.646E+01, 255
2019-253T00:17:40.143,   1, 180,   1,    30,   4,          0,     46.128,  99216.844,    34.016,    -3.964,     0.290,   276.723, 2, 5.486E-04, -1.00,   2,  8.544E-03,  2.060E-04,  1.329E-12,  5.443E-14,  9.710E+02,  3.976E+01, 255
2019-253T00:18:10.144,   1, 180,   1,    30,   4,          0,     46.128,  99216.844,    34.013,    -3.963,     0.290,   276.420, 2, 5.486E-04, -1.00,   2,  9.183E-03,  2.077E-04,  1.151E-12,  5.413E-14,  7.822E+02,  3.679E+01, 255
2019-253T00:18:40.144,   1, 180,   1,    30,   4,          0,     46.128,  99216.844,    34.009,    -3.962,     0.290,   276.118, 2, 5.486E-04, -1.00,   2,  1.085E-02,  2.179E-04,  1.510E-12,  5.487E-14,  8.685E+02,  3.156E+01, 255
2019-253T00:19:10.144,   1, 180,   1,    30,   4,          0,     46.128,  99216.844,    34.006,    -3.961,     0.290,   275.815, 2, 5.486E-04, -1.00,   2,  1.021E-02,  2.098E-04,  1.760E-12,  5.766E-14,  1.075E+03,  3.523E+01, 255
2019-253T00:19:40.145,   1, 180,   1,    30,   4,          0,     46.128,  99216.844,    34.002,    -3.959,     0.290,   275.513, 2, 5.486E-04, -1.00,   2,  1.055E-02,  2.098E-04,  1.785E-12,  5.565E-14,  1.056E+03,  3.292E+01, 255
2019-253T00:20:10.145,   1, 180,   1,    30,   4,          0,     46.128,  99216.844,    33.999,    -3.958,     0.290,   275.210, 2, 5.486E-04, -1.00,   2,  1.170E-02,  2.115E-04,  1.496E-12,  5.319E-14,  7.982E+02,  2.838E+01, 255
2019-253T00:20:40.145,   1, 180,   1,    30,   4,          0,     46.128,  99216.844,    33.995,    -3.957,     0.290,   274.908, 2, 5.486E-04, -1.00,   2,  1.225E-02,  2.153E-04,  1.419E-12,  5.259E-14,  7.231E+02,  2.679E+01, 255
2019-253T00:21:10.146,   1, 180,   1,    30,   4,          0,     46.128,  99216.844,    33.992,    -3.956,     0.290,   274.605, 2, 5.486E-04, -1.00,   2,  1.212E-02,  2.114E-04,  1.234E-12,  5.133E-14,  6.355E+02,  2.643E+01, 255
2019-253T00:21:40.146,   1, 180,   1,    30,   4,          0,     46.128,  99216.844,    33.988,    -3.954,     0.290,   274.303, 2, 5.486E-04, -1.00,   2,  1.221E-02,  2.175E-04,  1.474E-12,  5.241E-14,  7.531E+02,  2.679E+01, 255
2019-253T00:22:10.146,   1, 180,   1,    30,   4,          0,     46.128,  99216.844,    33.985,    -3.953,     0.290,   274.000, 2, 5.486E-04, -1.00,   2,  9.069E-03,  1.990E-04,  1.030E-12,  4.999E-14,  7.087E+02,  3.441E+01, 255
2019-253T00:22:40.147,   1, 180,   1,    30,   4,          0,     46.128,  99216.844,    33.981,    -3.952,     0.290,   273.697, 2, 5.486E-04, -1.00,   2,  9.278E-03,  1.993E-04,  9.187E-13,  5.045E-14,  6.180E+02,  3.394E+01, 255
2019-253T00:23:10.147,   1, 180,   1,    30,   4,          0,     46.128,  99216.844,    33.978,    -3.950,     0.290,   273.395, 2, 5.486E-04, -1.00,   2,  9.051E-03,  1.986E-04,  1.051E-12,  4.974E-14,  7.248E+02,  3.430E+01, 255
2019-253T00:23:40.147,   1, 180,   1,    30,   4,          0,     46.128,  99216.844,    33.974,    -3.949,     0.290,   273.092, 2, 5.486E-04, -1.00,   2,  7.603E-03,  1.894E-04,  7.050E-13,  4.887E-14,  5.788E+02,  4.012E+01, 255
2019-253T00:24:10.148,   1, 180,   1,    30,   4,          0,     46.128,  99216.844,    33.971,    -3.948,     0.290,   272.790, 2, 5.486E-04, -1.00,   2,  7.318E-03,  1.857E-04,  9.349E-13,  4.990E-14,  7.973E+02,  4.256E+01, 255
2019-253T00:24:40.148,   1, 180,   1,    30,   4,          0,     46.128,  99216.844,    33.967,    -3.947,     0.290,   272.487, 2, 5.486E-04, -1.00,   2,  8.034E-03,  1.912E-04,  1.105E-12,  5.051E-14,  8.586E+02,  3.924E+01, 255
2019-253T00:25:10.148,   1, 180,   1,    30,   4,          0,     46.128,  99216.844,    33.964,    -3.945,     0.290,   272.185, 2, 5.486E-04, -1.00,   2,  7.923E-03,  1.873E-04,  1.158E-12,  5.092E-14,  9.119E+02,  4.011E+01, 255
2019-253T00:25:40.149,   1, 180,   1,    30,   4,          0,     46.128,  99216.844,    33.960,    -3.944,     0.290,   271.882, 2, 5.486E-04, -1.00,   2,  7.977E-03,  1.987E-04,  1.161E-12,  5.359E-14,  9.085E+02,  4.193E+01, 255
2019-253T00:26:10.149,   1, 180,   1,    30,   4,          0,     46.128,  99216.844,    33.957,    -3.943,     0.290,   271.580, 2, 5.486E-04, -1.00,   2,  7.948E-03,  2.011E-04,  9.417E-13,  5.281E-14,  7.395E+02,  4.147E+01, 255
2019-253T00:26:40.150,   1, 180,   1,    30,   4,          0,     46.128,  99216.844,    33.953,    -3.942,     0.290,   271.277, 2, 5.486E-04, -1.00,   2,  8.753E-03,  2.083E-04,  8.806E-13,  5.223E-14,  6.279E+02,  3.724E+01, 255
2019-253T00:27:10.150,   1, 180,   1,    30,   4,          0,     46.128,  99216.844,    33.950,    -3.940,     0.289,   270.975, 2, 5.486E-04, -1.00,   2,  8.696E-03,  2.086E-04,  8.891E-13,  5.458E-14,  6.381E+02,  3.918E+01, 255
2019-253T00:33:10.154,   1, 180,   1,    30,   4,          0,     46.128,  99216.844,    33.907,    -3.925,     0.289,   267.344, 2, 5.486E-04, -1.00,   2,  9.272E-03,  2.171E-04,  1.082E-12,  5.655E-14,  7.283E+02,  3.807E+01, 255
2019-253T00:33:40.154,   1, 180,   1,    30,   4,          0,     46.128,  99216.844,    33.904,    -3.924,     0.289,   267.042, 2, 5.486E-04, -1.00,   2,  9.531E-03,  2.170E-04,  9.329E-13,  5.471E-14,  6.109E+02,  3.583E+01, 255
2019-253T00:34:10.155,   1, 180,   1,    30,   4,          0,     46.128,  99216.844,    33.900,    -3.922,     0.289,   266.739, 2, 5.486E-04, -1.00,   2,  9.157E-03,  2.077E-04,  1.103E-12,  5.372E-14,  7.516E+02,  3.662E+01, 255
2019-253T00:34:40.155,   1, 180,   1,    30,   4,          0,     46.128,  99216.844,    33.897,    -3.921,     0.289,   266.437, 2, 5.486E-04, -1.00,   2,  8.623E-03,  2.065E-04,  1.076E-12,  5.385E-14,  7.785E+02,  3.898E+01, 255
2019-253T00:35:10.155,   1, 180,   1,    30,   4,          0,     46.128,  99216.844,    33.893,    -3.920,     0.289,   266.134, 2, 5.486E-04, -1.00,   2,  8.062E-03,  2.047E-04,  1.038E-12,  5.495E-14,  8.033E+02,  4.254E+01, 255
2019-253T00:48:40.165,   1, 180,   1,    30,   4,          0,     46.128,  99216.844,    33.798,    -3.885,     0.289,   257.966, 2, 5.486E-04, -1.00,   2,  1.084E-02,  2.450E-04,  1.784E-12,  6.504E-14,  1.027E+03,  3.743E+01, 255
2019-253T00:49:10.165,   1, 180,   1,    30,   4,          0,     46.128,  99216.844,    33.795,    -3.884,     0.289,   257.664, 2, 5.486E-04, -1.00,   2,  1.382E-02,  2.495E-04,  2.854E-12,  6.657E-14,  1.290E+03,  3.007E+01, 255
2019-253T00:49:40.165,   1, 180,   1,    30,   4,          0,     46.128,  99216.844,    33.791,    -3.883,     0.289,   257.361, 2, 5.486E-04, -1.00,   2,  4.020E-02,  3.161E-04,  9.322E-12,  7.445E-14,  1.447E+03,  1.156E+01, 255
2019-253T00:50:10.166,   1, 180,   1,    30,   4,          0,     46.128,  99216.844,    33.788,    -3.882,     0.289,   257.059, 2, 5.486E-04, -1.00,   2,  5.331E-02,  3.520E-04,  1.327E-11,  7.976E-14,  1.554E+03,  9.338E+00, 255
2019-253T00:50:40.166,   1, 180,   1,    30,   4,          0,     46.128,  99216.844,    33.784,    -3.880,     0.289,   256.756, 2, 5.486E-04, -1.00,   2,  5.828E-02,  3.639E-04,  1.654E-11,  8.686E-14,  1.772E+03,  9.303E+00, 255
2019-253T00:51:10.167,   1, 180,   1,    30,   4,          0,     46.128,  99216.844,    33.781,    -3.879,     0.289,   256.454, 2, 5.486E-04, -1.00,   4,  6.764E-02,  3.744E-04,  1.804E-11,  9.906E-14,  1.665E+03,  9.141E+00, 255
2019-253T00:51:40.167,   1, 180,   1,    30,   4,          0,     46.128,  99216.844,    33.777,    -3.878,     0.289,   256.151, 2, 5.486E-04, -1.00,   3,  6.250E-02,  3.719E-04,  1.679E-11,  9.777E-14,  1.677E+03,  9.763E+00, 255
2019-253T00:52:10.167,   1, 180,   1,    30,   4,          0,     46.128,  99216.844,    33.774,    -3.876,     0.289,   255.849, 2, 5.486E-04, -1.00,   3,  7.044E-02,  3.894E-04,  1.898E-11,  9.876E-14,  1.682E+03,  8.751E+00, 255
2019-253T00:52:40.168,   1, 180,   1,    30,   4,          0,     46.128,  99216.844,    33.770,    -3.875,     0.289,   255.546, 2, 5.486E-04, -1.00,   3,  7.124E-02,  3.939E-04,  2.005E-11,  1.015E-13,  1.757E+03,  8.890E+00, 255
2019-253T00:53:10.168,   1, 180,   1,    30,   4,          0,     46.128,  99216.844,    33.767,    -3.874,     0.289,   255.243, 2, 5.486E-04, -1.00,   2,  5.641E-02,  3.532E-04,  1.501E-11,  8.245E-14,  1.661E+03,  9.124E+00, 255
2019-253T00:53:40.168,   1, 180,   1,    30,   4,          0,     46.128,  99216.844,    33.763,    -3.873,     0.289,   254.941, 2, 5.486E-04, -1.00,   2,  6.473E-02,  3.725E-04,  1.812E-11,  8.805E-14,  1.747E+03,  8.490E+00, 255
2019-253T00:54:10.169,   1, 180,   1,    30,   4,          0,     46.128,  99216.844,    33.760,    -3.871,     0.289,   254.638, 2, 5.486E-04, -1.00,   2,  7.267E-02,  3.962E-04,  2.021E-11,  8.784E-14,  1.736E+03,  7.545E+00, 255
2019-253T00:54:40.169,   1, 180,   1,    30,   4,          0,     46.128,  99216.844,    33.756,    -3.870,     0.289,   254.336, 2, 5.486E-04, -1.00,   2,  7.712E-02,  4.155E-04,  2.249E-11,  9.323E-14,  1.820E+03,  7.545E+00, 255
2019-253T00:55:10.169,   1, 180,   1,    30,   4,          0,     46.128,  99216.844,    33.753,    -3.869,     0.289,   254.033, 2, 5.486E-04, -1.00,   2,  8.075E-02,  4.236E-04,  2.559E-11,  1.037E-13,  1.978E+03,  8.018E+00, 255
2019-253T00:55:40.170,   1, 180,   1,    30,   4,          0,     46.128,  99216.844,    33.749,    -3.867,     0.289,   253.731, 2, 5.486E-04, -1.00,   2,  8.321E-02,  4.381E-04,  2.583E-11,  1.056E-13,  1.937E+03,  7.924E+00, 255
2019-253T00:56:10.170,   1, 180,   1,    30,   4,          0,     46.128,  99216.844,    33.746,    -3.866,     0.289,   253.428, 2, 5.486E-04, -1.00,   2,  7.829E-02,  4.207E-04,  2.501E-11,  1.027E-13,  1.994E+03,  8.191E+00, 255
2019-253T00:56:40.170,   1, 180,   1,    30,   4,          0,     46.128,  99216.844,    33.742,    -3.865,     0.289,   253.126, 2, 5.486E-04, -1.00,   2,  7.470E-02,  4.072E-04,  2.450E-11,  1.026E-13,  2.047E+03,  8.576E+00, 255
2019-253T00:57:10.171,   1, 180,   1,    30,   4,          0,     46.128,  99216.844,    33.739,    -3.864,     0.288,   252.823, 2, 5.486E-04, -1.00,   2,  8.160E-02,  4.241E-04,  2.593E-11,  1.035E-13,  1.983E+03,  7.913E+00, 255
2019-253T00:57:40.171,   1, 180,   1,    30,   4,          0,     46.128,  99216.844,    33.735,    -3.862,     0.288,   252.521, 2, 5.486E-04, -1.00,   2,  8.609E-02,  4.322E-04,  2.702E-11,  1.054E-13,  1.959E+03,  7.643E+00, 255
2019-253T00:58:10.171,   1, 180,   1,    30,   4,          0,     46.128,  99216.844,    33.732,    -3.861,     0.288,   252.218, 2, 5.486E-04, -1.00,   2,  8.754E-02,  4.400E-04,  2.696E-11,  1.060E-13,  1.922E+03,  7.555E+00, 255
2019-253T00:58:40.172,   1, 180,   1,    30,   4,          0,     46.128,  99216.844,    33.728,    -3.860,     0.288,   251.916, 2, 5.486E-04, -1.00,   2,  8.124E-02,  4.229E-04,  2.567E-11,  1.042E-13,  1.972E+03,  8.004E+00, 255
2019-253T00:59:10.172,   1, 180,   1,    30,   4,          0,     46.128,  99216.844,    33.725,    -3.858,     0.288,   251.613, 2, 5.486E-04, -1.00,   2,  8.018E-02,  4.169E-04,  2.596E-11,  1.046E-13,  2.021E+03,  8.142E+00, 255
2019-253T00:59:40.173,   1, 180,   1,    30,   4,          0,     46.128,  99216.844,    33.721,    -3.857,     0.288,   251.311, 2, 5.486E-04, -1.00,   2,  8.048E-02,  4.255E-04,  2.515E-11,  1.037E-13,  1.950E+03,  8.040E+00, 255
2019-253T01:00:10.173,   1, 180,   1,    30,   4,          0,     46.128,  99216.844,    33.717,    -3.856,     0.288,   251.008, 2, 5.486E-04, -1.00,   2,  7.027E-02,  4.022E-04,  2.307E-11,  1.011E-13,  2.049E+03,  8.979E+00, 255
2019-253T01:00:40.173,   1, 180,   1,    30,   4,          0,     46.128,  99216.844,    33.714,    -3.855,     0.288,   250.706, 2, 5.486E-04, -1.00,   2,  6.756E-02,  3.903E-04,  2.318E-11,  1.019E-13,  2.142E+03,  9.417E+00, 255
2019-253T01:01:10.173,   1, 180,   1,    30,   4,          0,     46.128,  99216.844,    33.710,    -3.853,     0.288,   250.403, 2, 5.486E-04, -1.00,   2,  7.231E-02,  4.065E-04,  2.349E-11,  1.016E-13,  2.027E+03,  8.772E+00, 255
2019-253T01:01:40.174,   1, 180,   1,    30,   4,          0,     46.128,  99216.844,    33.707,    -3.852,     0.288,   250.100, 2, 5.486E-04, -1.00,   2,  7.714E-02,  4.235E-04,  2.398E-11,  1.007E-13,  1.940E+03,  8.145E+00, 255
2019-253T01:02:10.174,   1, 180,   1,    30,   4,          0,     46.128,  99216.844,    33.703,    -3.851,     0.288,   249.798, 2, 5.486E-04, -1.00,   2,  8.227E-02,  4.306E-04,  2.524E-11,  1.041E-13,  1.915E+03,  7.898E+00, 255
2019-253T01:02:40.174,   1, 180,   1,    30,   4,          0,     46.128,  99216.844,    33.700,    -3.849,     0.288,   249.495, 2, 5.486E-04, -1.00,   2,  8.780E-02,  4.493E-04,  2.564E-11,  1.034E-13,  1.823E+03,  7.349E+00, 255
2019-253T01:03:10.175,   1, 180,   1,    30,   4,          0,     46.128,  99216.844,    33.696,    -3.848,     0.288,   249.193, 2, 5.486E-04, -1.00,   2,  8.970E-02,  4.566E-04,  2.512E-11,  1.011E-13,  1.748E+03,  7.033E+00, 255
2019-253T01:03:40.175,   1, 180,   1,    30,   4,          0,     46.128,  99216.844,    33.693,    -3.847,     0.288,   248.890, 2, 5.486E-04, -1.00,   2,  6.736E-02,  3.873E-04,  2.285E-11,  1.003E-13,  2.117E+03,  9.294E+00, 255
2019-253T01:04:10.176,   1, 180,   1,    30,   4,          0,     46.128,  99216.844,    33.689,    -3.846,     0.288,   248.588, 2, 5.486E-04, -1.00,   2,  6.548E-02,  3.814E-04,  2.257E-11,  9.971E-14,  2.152E+03,  9.504E+00, 255
2019-253T01:04:40.176,   1, 180,   1,    30,   4,          0,     46.128,  99216.844,    33.686,    -3.844,     0.288,   248.285, 2, 5.486E-04, -1.00,   2,  6.720E-02,  3.899E-04,  2.239E-11,  9.822E-14,  2.080E+03,  9.123E+00, 255
2019-253T01:05:10.176,   1, 180,   1,    30,   4,          0,     46.128,  99216.844,    33.682,    -3.843,     0.288,   247.983, 2, 5.486E-04, -1.00,   2,  6.969E-02,  3.906E-04,  2.301E-11,  9.866E-14,  2.061E+03,  8.837E+00, 255
2019-253T01:05:40.177,   1, 180,   1,    30,   4,          0,     46.128,  99216.844,    33.679,    -3.842,     0.288,   247.680, 2, 5.486E-04, -1.00,   2,  6.903E-02,  3.807E-04,  2.269E-11,  9.697E-14,  2.052E+03,  8.768E+00, 255
2019-253T01:06:10.177,   1, 180,   1,    30,   4,          0,     46.128,  99216.844,    33.675,    -3.840,     0.288,   247.378, 2, 5.486E-04, -1.00,   2,  7.638E-02,  4.120E-04,  2.419E-11,  9.951E-14,  1.977E+03,  8.131E+00, 255
2019-253T01:06:40.177,   1, 180,   1,    30,   4,          0,     46.128,  99216.844,    33.672,    -3.839,     0.288,   247.075, 2, 5.486E-04, -1.00,   2,  8.380E-02,  4.312E-04,  2.306E-11,  9.731E-14,  1.717E+03,  7.248E+00, 255
2019-253T01:07:10.178,   1, 180,   1,    30,   4,          0,     46.128,  99216.844,    33.668,    -3.838,     0.288,   246.773, 2, 5.486E-04, -1.00,   2,  8.548E-02,  4.405E-04,  2.280E-11,  9.509E-14,  1.665E+03,  6.943E+00, 255
2019-253T01:07:40.178,   1, 180,   1,    30,   4,          0,     46.128,  99216.844,    33.665,    -3.837,     0.288,   246.470, 2, 5.486E-04, -1.00,   2,  8.717E-02,  4.522E-04,  2.279E-11,  9.725E-14,  1.632E+03,  6.963E+00, 255
2019-253T01:08:10.178,   1, 180,   1,    30,   4,          0,     46.128,  99216.844,    33.661,    -3.835,     0.288,   246.168, 2, 5.486E-04, -1.00,   2,  8.722E-02,  4.436E-04,  2.407E-11,  9.922E-14,  1.723E+03,  7.100E+00, 255
2019-253T01:08:40.179,   1, 180,   1,    30,   4,          0,     46.128,  99216.844,    33.658,    -3.834,     0.288,   245.865, 2, 5.486E-04, -1.00,   2,  8.844E-02,  4.561E-04,  2.310E-11,  9.947E-14,  1.630E+03,  7.020E+00, 255
2019-253T01:09:10.179,   1, 180,   1,    30,   4,          0,     46.128,  99216.844,    33.654,    -3.833,     0.288,   245.563, 2, 5.486E-04, -1.00,   2,  9.307E-02,  4.676E-04,  2.359E-11,  9.898E-14,  1.582E+03,  6.638E+00, 255
2019-253T01:09:40.179,   1, 180,   1,    30,   4,          0,     46.128,  99216.844,    33.650,    -3.831,     0.288,   245.260, 2, 5.486E-04, -1.00,   2,  9.517E-02,  4.722E-04,  2.265E-11,  9.638E-14,  1.485E+03,  6.321E+00, 255
2019-253T01:10:10.180,   1, 180,   1,    30,   4,          0,     46.128,  99216.844,    33.647,    -3.830,     0.288,   244.958, 2, 5.486E-04, -1.00,   2,  9.651E-02,  4.797E-04,  2.230E-11,  9.734E-14,  1.442E+03,  6.296E+00, 255
2019-253T01:10:40.180,   1, 180,   1,    30,   4,          0,     46.128,  99216.844,    33.643,    -3.829,     0.288,   244.655, 2, 5.486E-04, -1.00,   2,  1.018E-01,  4.899E-04,  2.340E-11,  9.664E-14,  1.434E+03,  5.924E+00, 255
2019-253T01:11:10.180,   1, 180,   1,    30,   4,          0,     46.128,  99216.844,    33.640,    -3.828,     0.288,   244.352, 2, 5.486E-04, -1.00,   2,  1.108E-01,  5.083E-04,  2.466E-11,  9.859E-14,  1.389E+03,  5.552E+00, 255
2019-253T01:11:40.181,   1, 180,   1,    30,   4,          0,     46.128,  99216.844,    33.636,    -3.826,     0.288,   244.050, 2, 5.486E-04, -1.00,   2,  1.103E-01,  5.074E-04,  2.341E-11,  9.646E-14,  1.324E+03,  5.457E+00, 255
2019-253T01:12:10.181,   1, 180,   1,    30,   4,          0,     46.128,  99216.844,    33.633,    -3.825,     0.288,   243.747, 2, 5.486E-04, -1.00,   2,  1.017E-01,  4.880E-04,  2.293E-11,  9.688E-14,  1.407E+03,  5.943E+00, 255
2019-253T01:12:40.181,   1, 180,   1,    30,   4,          0,     46.128,  99216.844,    33.629,    -3.824,     0.288,   243.445, 2, 5.486E-04, -1.00,   2,  9.953E-02,  4.768E-04,  2.169E-11,  9.329E-14,  1.360E+03,  5.850E+00, 255
2019-253T01:13:10.182,   1, 180,   1,    30,   4,          0,     46.128,  99216.844,    33.626,    -3.822,     0.288,   243.142, 2, 5.486E-04, -1.00,   2,  9.296E-02,  4.632E-04,  1.981E-11,  8.945E-14,  1.330E+03,  6.006E+00, 255